sat.trackr.live / text

‹ back to catalog

STARLINK-3934

NORAD 52675 · 2022-053V

PAYLOAD ACTIVE UNKNOWN

§ Identity

Operator
Country
US
Launch date
2022-05-18
Launch site
AFETR
Launch vehicle
Mass (kg)
RCS (m²)

Purposes: comms

External: N2YO · Heavens-Above · Gunter

§ Orbital elements

Epoch: 2026-09-18T05:41:58.026624Z

Period
94.01 min
Inclination
53.1592°
Eccentricity
0.0000942
Mean motion
15.31698062 rev/d
Perigee alt
470.1 km
Apogee alt
471.4 km
Semi-major
6,848.9 km
B*
-1.4419e-5
RAAN
350.4593°
Arg perigee
68.1033°
Mean anomaly
292.0069°
Rev number
24,036

§ Raw data

STARLINK-39341 52675U 22053V   26261.23747716 -.00000812  00000+0 -14419-4 0  99962 52675  53.1592 350.4593 0000942  68.1033 292.0069 15.31698062240361

JSON: /api/v1/satellites/52675 · /tle

For live sub-satellite position, see the globe view (requires WebGL).

§ Visibility from observer

Set your observer location to see the next 7 days of passes ≥ 10°. The values pass through the URL so the page stays shareable.

No JS? Fill the form by hand. The geolocation button needs JavaScript.